星链-30514 (STARLINK-30514 )

导读

STARLINK-30514是美国SpaceX公司星链(Starlink)星座的成员卫星,于2023年10月9日发射入轨。星链项目旨在构建全球低轨卫星互联网星座,该卫星工作于近地轨道,配备相控阵天线,支持Ku/Ka波段通信,部分星链卫星已搭载激光星间链路技术,可实现高速数据传输。作为星链扩容组网的一部分,它的入轨进一步增强了星座的全球覆盖能力,可为偏远地区提供宽带互联网接入服务,并支持手机直连业务拓展。

基本信息
目录编号:
58028
目录名称:
STARLINK-30514
国际标识:
2023-156A
轨道中心:
EARTH
卫星名称:
星链-30514
卫星全名:
星链-30514 (STARLINK-30514 )
卫星状态:
在轨 (已飞行1061 天)
发射日期:
2023-10-09 UTC
国别 :
美国 (US)
星等 :
--
轨道信息
数据来源 国际轨道数据
星历时间: 2026-09-03T23:22:51+0800
15小时前
查看轨道信息
半长轴: 6840.846km
偏心率: 0.0001265
轨道倾角: 53.160°
近地点辐角 84.803°
升交点赤经 330.218°
平近点角 275.312°
近地点: 461.843km
远地点: 463.575km
周期: 93.848分钟
每日圈数: 15.343983
详细信息
固有亮度:
5
最大亮度:
0.3
卫星平台:
Starlink v2.0 mini
覆盖范围:
全球
运营商:
太空探索技术公司
运营商所在国:
美国
制造商(研发单位):
太空探索技术公司
制造商所在国:
美国
使用方式:
暂无
卫星简介
星链(Starlink)计划是由太空探索技术公司(SpaceX)提出的一个巨型低轨卫星互联网星座项目,计划在2019年至2024年间在太空搭建由约1.2万颗卫星组成的“星链”网络,其中1584颗将部署在地球上空550千米处的近地轨道,并从2020年开始工作。该卫星仍在工作。
2D轨道图
3D轨道图
轨道高度分析图
轨道倾角分析图
轨道综合分析图
查看轨道综合分析图